Regional Weather Roundup
Issued by NWS

Home | Current Version | Previous Version | Graphics & Text | Print | Product List | Glossary On
Versions: 1 2 3 4 5 6 7 8 9 10 11 12 13 14 15 16 17 18 19 20 21 22 23 24 25 26 27 28 29 30 31 32 33 34 35 36 37 38 39 40 41 42 43 44 45 46 47 48 49 50
518
ASUS43 KIND 230859
RWRIN

WEATHER ROUNDUP FOR INDIANA
NATIONAL WEATHER SERVICE INDIANAPOLIS IN
400 AM EST THU FEB 23 2017

NOTE: "FAIR" INDICATES FEW OR NO CLOUDS BELOW 12,000 FEET WITH NO
SIGNIFICANT WEATHER AND/OR OBSTRUCTIONS TO VISIBILITY.

* - STATION DOES NOT REPORT WEATHER SUCH AS PRECIPITATION OR FOG.

+ - STATION NOT QUALITY CONTROLLED BY THE NATIONAL WEATHER SERVICE.
    USE DATA WITH CAUTION...ESPECIALLY DEWPOINT AND RELATIVE
    HUMIDITY OBSERVATIONS.

INZ001>003-010>013-019-020-231000-
NORTHWEST INDIANA

CITY           SKY/WX    TMP DP  RH WIND       PRES   REMARKS
GARY /AIRPORT/ PTCLDY    57  50  77 W9        29.68S
KNOX *+        PTCLDY    54  37  54 SW9       29.68S
MONTICELLO +   CLEAR     55  51  89 SW8       29.71S

$$

LMZ046-743>745-231000-
SOUTHERN LAKE MICHIGAN

STATION/POSITION TIME  TEMP    WIND        PRES    WAVE
                       AIR SEA DIR/SP/G            HT
                 (UTC) (F)     (DEG/KT/KT) (MB)    (FT)
BURNS HARBOR     0840   50     250/ 12/ 14 1005.4R
MICHIGAN CITY    0830   53     210/ 19/ 20   N/A

$$

INZ004-005-014>016-021>024-231000-
NORTH CENTRAL INDIANA

CITY           SKY/WX    TMP DP  RH WIND       PRES   REMARKS
GOSHEN         MOCLDY    56  51  84 SW12      29.68R
SOUTH BEND     CLEAR     53  51  93 SW10      29.68R
WARSAW +       CLEAR     55  52  88 SW10G17   29.69S

$$

INZ006>009-017-018-025>027-231000-
NORTHEAST INDIANA

CITY           SKY/WX    TMP DP  RH WIND       PRES   REMARKS
ANGOLA *+      CLEAR     55  46  71 SW9       29.67R
AUBURN +       CLEAR     54  52  94 SW5       29.69F
FORT WAYNE     PTCLDY    57  52  83 SW14      29.70S
KENDALLVILLE + CLEAR     55  53  94 SW13      29.68S

$$

INZ028-029-035-036-043>045-051>053-231000-
WEST CENTRAL INDIANA

CITY           SKY/WX    TMP DP  RH WIND       PRES   REMARKS
LAFAYETTE      PTCLDY    54  52  93 SW6       29.72S
TERRE HAUTE    MOCLDY    57  53  86 SW8       29.75F

$$

INZ030>032-037>040-046>048-054>057-064-065-231000-
CENTRAL INDIANA

CITY           SKY/WX    TMP DP  RH WIND       PRES   REMARKS
CP ATTERBURY + PTCLDY    55  54  94 SW5       29.78S
FRANKFORT +    PTCLDY    57  55  90 SW10      29.75S
GREENWOOD *+   PTCLDY    55  54  97 S6        29.77S
INDIANAPOLIS   PTCLDY    55  53  93 S8        29.75F
-EAGLE CREEK   PTCLDY    54  52  93 S5        29.75S
KOKOMO +       CLEAR     55  53  93 SW12      29.73S
MT COMFORT *+  CLEAR     54  52  94 S7        29.76S
SHELBYVILLE    MOCLDY    57  53  86 S9        29.76F

$$

INZ033-034-041-042-049-050-058-059-231000-
EAST CENTRAL INDIANA

CITY           SKY/WX    TMP DP  RH WIND       PRES   REMARKS
MUNCIE         PTCLDY    59  54  83 SW12      29.74S

$$

INZ060-061-067>069-081>083-085>088-231000-
SOUTHWEST INDIANA

CITY           SKY/WX    TMP DP  RH WIND       PRES   REMARKS
EVANSVILLE     MOCLDY    58  54  86 S3        29.79S
HUNTINGBURG *+ CLOUDY    57  54  88 S3        29.80S

$$

INZ062-063-066-070>080-084-089>092-231000-
SOUTH CENTRAL AND SOUTHEAST INDIANA

CITY           SKY/WX    TMP DP  RH WIND       PRES   REMARKS
BLOOMINGTON    PTCLDY    59  53  80 W10       29.77F
MADISON *+     CLOUDY    55  54  94 S3        29.83R
SEYMOUR +      CLOUDY    59  55  88 S8        29.79S

$$





USA.gov is the U.S. government's official web portal to all federal, state and local government web resources and services.